Location: Newark
(7.0858°N, 171.3717°E)
Time: 07:32:23
(UTC+00:00)

Courier 1B - Pass Details

Date: 01 December 2020
Orbit: 962 x 1209 km, 28.3° (Epoch: 20 January)

Event Time Altitude Azimuth Distance (km) Brightness Sun altitude
Rises 17:41:12 0° 287° (WNW) 4,028 - -12.5°
Reaches altitude 10° 17:44:07 10° 281° (WNW) 3,092 - -11.8°
Exits shadow 17:44:56 13° 279° (W) 2,839 9.3 -11.6°
Maximum altitude 17:51:26 46° 211° (SSW) 1,569 8.5 -10.1°
Drops below altitude 10° 17:58:52 10° 140° (SE) 3,138 11.2 -8.4°
Sets 18:01:52 0° 134° (SE) 4,092 12.2 -7.7°
